Year,Month,Day,Hour,Minute,Value (Times are PST for temperature in C)
2018,04,24,00,00,8.50
2018,04,24,00,01,8.50
2018,04,24,00,02,8.40
2018,04,24,00,03,8.40
2018,04,24,00,04,8.40
2018,04,24,00,05,8.40
2018,04,24,00,06,8.30
2018,04,24,00,07,8.30
2018,04,24,00,08,8.30
2018,04,24,00,09,8.20
2018,04,24,00,10,8.20
2018,04,24,00,11,8.20
2018,04,24,00,12,8.20
2018,04,24,00,13,8.10
2018,04,24,00,14,8.10
2018,04,24,00,15,8.10
2018,04,24,00,16,8.10
2018,04,24,00,17,8.10
2018,04,24,00,18,8.10
2018,04,24,00,19,8.10
2018,04,24,00,20,8.10
2018,04,24,00,21,8.10
2018,04,24,00,22,8.20
2018,04,24,00,23,8.20
2018,04,24,00,24,8.20
2018,04,24,00,25,8.20
2018,04,24,00,26,8.20
2018,04,24,00,27,8.10
2018,04,24,00,28,8.10
2018,04,24,00,29,8.10
2018,04,24,00,30,8.10
2018,04,24,00,31,8.10
2018,04,24,00,32,8.00
2018,04,24,00,33,8.00
2018,04,24,00,34,8.00
2018,04,24,00,35,8.00
2018,04,24,00,36,8.00
2018,04,24,00,37,8.00
2018,04,24,00,38,8.00
2018,04,24,00,39,8.00
2018,04,24,00,40,8.00
2018,04,24,00,41,8.00
2018,04,24,00,42,8.00
2018,04,24,00,43,8.10
2018,04,24,00,44,8.10
2018,04,24,00,45,8.10
2018,04,24,00,46,8.10
2018,04,24,00,47,8.10
2018,04,24,00,48,8.20
2018,04,24,00,49,8.10
2018,04,24,00,50,8.10
2018,04,24,00,51,8.20
2018,04,24,00,52,8.20
2018,04,24,00,53,8.20
2018,04,24,00,54,8.20
2018,04,24,00,55,8.20
2018,04,24,00,56,8.20
2018,04,24,00,57,8.30
2018,04,24,00,58,8.30
2018,04,24,00,59,8.30
2018,04,24,01,00,8.40
2018,04,24,01,01,8.40
2018,04,24,01,02,8.40
2018,04,24,01,03,8.40
2018,04,24,01,04,8.40
2018,04,24,01,05,8.40
2018,04,24,01,06,8.40
2018,04,24,01,07,8.40
2018,04,24,01,08,8.30
2018,04,24,01,09,8.30
2018,04,24,01,10,8.30
2018,04,24,01,11,8.30
2018,04,24,01,12,8.30
2018,04,24,01,13,8.30
2018,04,24,01,14,8.30
2018,04,24,01,15,8.30
2018,04,24,01,16,8.30
2018,04,24,01,17,8.30
2018,04,24,01,18,8.30
2018,04,24,01,19,8.30
2018,04,24,01,20,8.30
2018,04,24,01,21,8.30
2018,04,24,01,22,8.30
2018,04,24,01,23,8.30
2018,04,24,01,24,8.30
2018,04,24,01,25,8.30
2018,04,24,01,26,8.30
2018,04,24,01,27,8.30
2018,04,24,01,28,8.30
2018,04,24,01,29,8.30
2018,04,24,01,30,8.30
2018,04,24,01,31,8.30
2018,04,24,01,32,8.20
2018,04,24,01,33,8.20
2018,04,24,01,34,8.20
2018,04,24,01,35,8.20
2018,04,24,01,36,8.20
2018,04,24,01,37,8.20
2018,04,24,01,38,8.20
2018,04,24,01,39,8.10
2018,04,24,01,40,8.10
2018,04,24,01,41,8.10
2018,04,24,01,42,8.10
2018,04,24,01,43,8.10
2018,04,24,01,44,8.10
2018,04,24,01,45,8.10
2018,04,24,01,46,8.10
2018,04,24,01,47,8.10
2018,04,24,01,48,8.10
2018,04,24,01,49,8.10
2018,04,24,01,50,8.10
2018,04,24,01,51,8.10
2018,04,24,01,52,8.10
2018,04,24,01,53,8.10
2018,04,24,01,54,8.00
2018,04,24,01,55,8.10
2018,04,24,01,56,8.10
2018,04,24,01,57,8.20
2018,04,24,01,58,8.30
2018,04,24,01,59,8.40
2018,04,24,02,00,8.40
2018,04,24,02,01,8.40
2018,04,24,02,02,8.40
2018,04,24,02,03,8.50
2018,04,24,02,04,8.50
2018,04,24,02,05,8.60
2018,04,24,02,06,8.60
2018,04,24,02,07,8.60
2018,04,24,02,08,8.70
2018,04,24,02,09,8.70
2018,04,24,02,10,8.70
2018,04,24,02,11,8.70
2018,04,24,02,12,8.80
2018,04,24,02,13,8.80
2018,04,24,02,14,8.80
2018,04,24,02,15,8.90
2018,04,24,02,16,9.00
2018,04,24,02,17,9.10
2018,04,24,02,18,9.20
2018,04,24,02,19,9.20
2018,04,24,02,20,9.30
2018,04,24,02,21,9.30
2018,04,24,02,22,9.30
2018,04,24,02,23,9.30
2018,04,24,02,24,9.30
2018,04,24,02,25,9.30
2018,04,24,02,26,9.30
2018,04,24,02,27,9.20
2018,04,24,02,28,9.20
2018,04,24,02,29,9.20
2018,04,24,02,30,9.20
2018,04,24,02,31,9.20
2018,04,24,02,32,9.10
2018,04,24,02,33,9.10
2018,04,24,02,34,9.10
2018,04,24,02,35,9.00
2018,04,24,02,36,9.00
2018,04,24,02,37,8.90
2018,04,24,02,38,8.90
2018,04,24,02,39,8.90
2018,04,24,02,40,8.90
2018,04,24,02,41,8.80
2018,04,24,02,42,8.80
2018,04,24,02,43,8.80
2018,04,24,02,44,8.70
2018,04,24,02,45,8.70
2018,04,24,02,46,8.60
2018,04,24,02,47,8.60
2018,04,24,02,48,8.50
2018,04,24,02,49,8.40
2018,04,24,02,50,8.40
2018,04,24,02,51,8.30
2018,04,24,02,52,8.20
2018,04,24,02,53,8.20
2018,04,24,02,54,8.20
2018,04,24,02,55,8.10
2018,04,24,02,56,8.10
2018,04,24,02,57,8.10
2018,04,24,02,58,8.10
2018,04,24,02,59,8.20
2018,04,24,03,00,8.20
2018,04,24,03,01,8.20
2018,04,24,03,02,8.20
2018,04,24,03,03,8.20
2018,04,24,03,04,8.20
2018,04,24,03,05,8.30
2018,04,24,03,06,8.30
2018,04,24,03,07,8.40
2018,04,24,03,08,8.40
2018,04,24,03,09,8.50
2018,04,24,03,10,8.60
2018,04,24,03,11,8.60
2018,04,24,03,12,8.60
2018,04,24,03,13,8.60
2018,04,24,03,14,8.60
2018,04,24,03,15,8.60
2018,04,24,03,16,8.60
2018,04,24,03,17,8.50
2018,04,24,03,18,8.50
2018,04,24,03,19,8.50
2018,04,24,03,20,8.40
2018,04,24,03,21,8.40
2018,04,24,03,22,8.30
2018,04,24,03,23,8.30
2018,04,24,03,24,8.30
2018,04,24,03,25,8.20
2018,04,24,03,26,8.20
2018,04,24,03,27,8.20
2018,04,24,03,28,8.10
2018,04,24,03,29,8.10
2018,04,24,03,30,8.10
2018,04,24,03,31,8.10
2018,04,24,03,32,8.10
2018,04,24,03,33,8.00
2018,04,24,03,34,8.00
2018,04,24,03,35,8.00
2018,04,24,03,36,8.00
2018,04,24,03,37,8.10
2018,04,24,03,38,8.10
2018,04,24,03,39,8.10
2018,04,24,03,40,8.10
2018,04,24,03,41,8.10
2018,04,24,03,42,8.10
2018,04,24,03,43,8.00
2018,04,24,03,44,7.90
2018,04,24,03,45,7.80
2018,04,24,03,46,7.80
2018,04,24,03,47,7.70
2018,04,24,03,48,7.60
2018,04,24,03,49,7.50
2018,04,24,03,50,7.40
2018,04,24,03,51,7.40
2018,04,24,03,52,7.40
2018,04,24,03,53,7.40
2018,04,24,03,54,7.40
2018,04,24,03,55,7.40
2018,04,24,03,56,7.50
2018,04,24,03,57,7.60
2018,04,24,03,58,7.80
2018,04,24,03,59,8.20
2018,04,24,04,00,8.50
2018,04,24,04,01,8.80
2018,04,24,04,02,9.10
2018,04,24,04,03,9.20
2018,04,24,04,04,9.30
2018,04,24,04,05,9.50
2018,04,24,04,06,9.50
2018,04,24,04,07,9.60
2018,04,24,04,08,9.60
2018,04,24,04,09,9.60
2018,04,24,04,10,9.60
2018,04,24,04,11,9.70
2018,04,24,04,12,9.70
2018,04,24,04,13,9.70
2018,04,24,04,14,9.80
2018,04,24,04,15,9.80
2018,04,24,04,16,9.80
2018,04,24,04,17,9.80
2018,04,24,04,18,9.80
2018,04,24,04,19,9.70
2018,04,24,04,20,9.70
2018,04,24,04,21,9.70
2018,04,24,04,22,9.60
2018,04,24,04,23,9.60
2018,04,24,04,24,9.60
2018,04,24,04,25,9.60
2018,04,24,04,26,9.60
2018,04,24,04,27,9.60
2018,04,24,04,28,9.50
2018,04,24,04,29,9.50
2018,04,24,04,30,9.60
2018,04,24,04,31,9.60
2018,04,24,04,32,9.60
2018,04,24,04,33,9.60
2018,04,24,04,34,9.60
2018,04,24,04,35,9.50
2018,04,24,04,36,9.40
2018,04,24,04,37,9.30
2018,04,24,04,38,9.30
2018,04,24,04,39,9.20
2018,04,24,04,40,9.10
2018,04,24,04,41,9.10
2018,04,24,04,42,9.00
2018,04,24,04,43,8.90
2018,04,24,04,44,8.90
2018,04,24,04,45,9.00
2018,04,24,04,46,9.10
2018,04,24,04,47,9.10
2018,04,24,04,48,9.20
2018,04,24,04,49,9.20
2018,04,24,04,50,9.20
2018,04,24,04,51,9.20
2018,04,24,04,52,9.20
2018,04,24,04,53,9.20
2018,04,24,04,54,9.20
2018,04,24,04,55,9.30
2018,04,24,04,56,9.30
2018,04,24,04,57,9.40
2018,04,24,04,58,9.40
2018,04,24,04,59,9.50
2018,04,24,05,00,9.50
2018,04,24,05,01,9.60
2018,04,24,05,02,9.60
2018,04,24,05,03,9.60
2018,04,24,05,04,9.60
2018,04,24,05,05,9.60
2018,04,24,05,06,9.60
2018,04,24,05,07,9.70
2018,04,24,05,08,9.80
2018,04,24,05,09,9.80
2018,04,24,05,10,9.90
2018,04,24,05,11,9.90
2018,04,24,05,12,9.90
2018,04,24,05,13,9.90
2018,04,24,05,14,10.00
2018,04,24,05,15,10.00
2018,04,24,05,16,10.10
2018,04,24,05,17,10.10
2018,04,24,05,18,10.10
2018,04,24,05,19,10.10
2018,04,24,05,20,10.10
2018,04,24,05,21,10.10
2018,04,24,05,22,10.10
2018,04,24,05,23,10.20
2018,04,24,05,24,10.20
2018,04,24,05,25,10.20
2018,04,24,05,26,10.20
2018,04,24,05,27,10.30
2018,04,24,05,28,10.30
2018,04,24,05,29,10.30
2018,04,24,05,30,10.40
2018,04,24,05,31,10.40
2018,04,24,05,32,10.50
2018,04,24,05,33,10.60
2018,04,24,05,34,10.60
2018,04,24,05,35,10.70
2018,04,24,05,36,10.70
2018,04,24,05,37,10.80
2018,04,24,05,38,10.80
2018,04,24,05,39,10.80
2018,04,24,05,40,10.90
2018,04,24,05,41,10.90
2018,04,24,05,42,10.90
2018,04,24,05,43,10.90
2018,04,24,05,44,10.90
2018,04,24,05,45,10.80
2018,04,24,05,46,10.80
2018,04,24,05,47,10.70
2018,04,24,05,48,10.70
2018,04,24,05,49,10.70
2018,04,24,05,50,10.70
2018,04,24,05,51,10.70
2018,04,24,05,52,10.70
2018,04,24,05,53,10.70
2018,04,24,05,54,10.70
2018,04,24,05,55,10.70
2018,04,24,05,56,10.70
2018,04,24,05,57,10.70
2018,04,24,05,58,10.70
2018,04,24,05,59,10.70
2018,04,24,06,00,10.70
2018,04,24,06,01,10.70
2018,04,24,06,02,10.70
2018,04,24,06,03,10.70
2018,04,24,06,04,10.70
2018,04,24,06,05,10.70
2018,04,24,06,06,10.70
2018,04,24,06,07,10.70
2018,04,24,06,08,10.70
2018,04,24,06,09,10.60
2018,04,24,06,10,10.60
2018,04,24,06,11,10.60
2018,04,24,06,12,10.60
2018,04,24,06,13,10.60
2018,04,24,06,14,10.60
2018,04,24,06,15,10.60
2018,04,24,06,16,10.60
2018,04,24,06,17,10.60
2018,04,24,06,18,10.70
2018,04,24,06,19,10.70
2018,04,24,06,20,10.70
2018,04,24,06,21,10.70
2018,04,24,06,22,10.70
2018,04,24,06,23,10.70
2018,04,24,06,24,10.70
2018,04,24,06,25,10.70
2018,04,24,06,26,10.70
2018,04,24,06,27,10.70
2018,04,24,06,28,10.60
2018,04,24,06,29,10.60
2018,04,24,06,30,10.60
2018,04,24,06,31,10.60
2018,04,24,06,32,10.60
2018,04,24,06,33,10.60
2018,04,24,06,34,10.70
2018,04,24,06,35,10.70
2018,04,24,06,36,10.70
2018,04,24,06,37,10.70
2018,04,24,06,38,10.80
2018,04,24,06,39,10.80
2018,04,24,06,40,10.80
2018,04,24,06,41,10.80
2018,04,24,06,42,10.80
2018,04,24,06,43,10.80
2018,04,24,06,44,10.80
2018,04,24,06,45,10.80
2018,04,24,06,46,10.80
2018,04,24,06,47,10.80
2018,04,24,06,48,10.80
2018,04,24,06,49,10.80
2018,04,24,06,50,10.80
2018,04,24,06,51,10.80
2018,04,24,06,52,10.80
2018,04,24,06,53,10.80
2018,04,24,06,54,10.80
2018,04,24,06,55,10.80
2018,04,24,06,56,10.80
2018,04,24,06,57,10.90
2018,04,24,06,58,10.90
2018,04,24,06,59,10.90
2018,04,24,07,00,10.90
2018,04,24,07,01,10.90
2018,04,24,07,02,10.90
2018,04,24,07,03,11.00
2018,04,24,07,04,11.10
2018,04,24,07,05,11.10
2018,04,24,07,06,11.10
2018,04,24,07,07,11.10
2018,04,24,07,08,11.20
2018,04,24,07,09,11.20
2018,04,24,07,10,11.20
2018,04,24,07,11,11.20
2018,04,24,07,12,11.30
2018,04,24,07,13,11.30
2018,04,24,07,14,11.30
2018,04,24,07,15,11.40
2018,04,24,07,16,11.40
2018,04,24,07,17,11.40
2018,04,24,07,18,11.40
2018,04,24,07,19,11.50
2018,04,24,07,20,11.50
2018,04,24,07,21,11.60
2018,04,24,07,22,11.60
2018,04,24,07,23,11.60
2018,04,24,07,24,11.70
2018,04,24,07,25,11.70
2018,04,24,07,26,11.70
2018,04,24,07,27,11.80
2018,04,24,07,28,11.80
2018,04,24,07,29,11.80
2018,04,24,07,30,11.80
2018,04,24,07,31,11.90
2018,04,24,07,32,12.00
2018,04,24,07,33,12.00
2018,04,24,07,34,12.10
2018,04,24,07,35,12.10
2018,04,24,07,36,12.10
2018,04,24,07,37,12.20
2018,04,24,07,38,12.20
2018,04,24,07,39,12.30
2018,04,24,07,40,12.30
2018,04,24,07,41,12.30
2018,04,24,07,42,12.40
2018,04,24,07,43,12.40
2018,04,24,07,44,12.50
2018,04,24,07,45,12.60
2018,04,24,07,46,12.60
2018,04,24,07,47,12.60
2018,04,24,07,48,12.70
2018,04,24,07,49,12.70
2018,04,24,07,50,12.70
2018,04,24,07,51,12.80
2018,04,24,07,52,12.80
2018,04,24,07,53,12.80
2018,04,24,07,54,12.90
2018,04,24,07,55,12.90
2018,04,24,07,56,12.90
2018,04,24,07,57,13.00
2018,04,24,07,58,13.00
2018,04,24,07,59,13.10
2018,04,24,08,00,13.10
2018,04,24,08,01,13.20
2018,04,24,08,02,13.20
2018,04,24,08,03,13.20
2018,04,24,08,04,13.20
2018,04,24,08,05,13.30
2018,04,24,08,06,13.30
2018,04,24,08,07,13.30
2018,04,24,08,08,13.40
2018,04,24,08,09,13.40
2018,04,24,08,10,13.40
2018,04,24,08,11,13.50
2018,04,24,08,12,13.50
2018,04,24,08,13,13.50
2018,04,24,08,14,13.60
2018,04,24,08,15,13.60
2018,04,24,08,16,13.70
2018,04,24,08,17,13.70
2018,04,24,08,18,13.80
2018,04,24,08,19,13.80
2018,04,24,08,20,13.90
2018,04,24,08,21,13.90
2018,04,24,08,22,13.90
2018,04,24,08,23,14.00
2018,04,24,08,24,14.10
2018,04,24,08,25,14.10
2018,04,24,08,26,14.20
2018,04,24,08,27,14.20
2018,04,24,08,28,14.20
2018,04,24,08,29,14.30
2018,04,24,08,30,14.30
2018,04,24,08,31,14.30
2018,04,24,08,32,14.40
2018,04,24,08,33,14.40
2018,04,24,08,34,14.40
2018,04,24,08,35,14.40
2018,04,24,08,36,14.50
2018,04,24,08,37,14.50
2018,04,24,08,38,14.50
2018,04,24,08,39,14.60
2018,04,24,08,40,14.70
2018,04,24,08,41,14.70
2018,04,24,08,42,14.70
2018,04,24,08,43,14.80
2018,04,24,08,44,14.80
2018,04,24,08,45,14.80
2018,04,24,08,46,14.80
2018,04,24,08,47,14.80
2018,04,24,08,48,14.80
2018,04,24,08,49,14.80
2018,04,24,08,50,14.80
2018,04,24,08,51,14.80
2018,04,24,08,52,14.80
2018,04,24,08,53,14.80
2018,04,24,08,54,14.90
2018,04,24,08,55,14.90
2018,04,24,08,56,15.00
2018,04,24,08,57,15.00
2018,04,24,08,58,15.00
2018,04,24,08,59,15.00
2018,04,24,09,00,15.00
2018,04,24,09,01,15.00
2018,04,24,09,02,15.00
2018,04,24,09,03,14.90
2018,04,24,09,04,14.90
2018,04,24,09,05,14.80
2018,04,24,09,06,14.80
2018,04,24,09,07,14.80
2018,04,24,09,08,14.80
2018,04,24,09,09,14.90
2018,04,24,09,10,14.80
2018,04,24,09,11,14.90
2018,04,24,09,12,14.90
2018,04,24,09,13,14.90
2018,04,24,09,14,14.90
2018,04,24,09,15,15.00
2018,04,24,09,16,15.00
2018,04,24,09,17,15.00
2018,04,24,09,18,15.10
2018,04,24,09,19,15.10
2018,04,24,09,20,15.20
2018,04,24,09,21,15.20
2018,04,24,09,22,15.30
2018,04,24,09,23,15.30
2018,04,24,09,24,15.30
2018,04,24,09,25,15.40
2018,04,24,09,26,15.50
2018,04,24,09,27,15.60
2018,04,24,09,28,15.60
2018,04,24,09,29,15.70
2018,04,24,09,30,15.70
2018,04,24,09,31,15.70
2018,04,24,09,32,15.60
2018,04,24,09,33,15.60
2018,04,24,09,34,15.60
2018,04,24,09,35,15.60
2018,04,24,09,36,15.60
2018,04,24,09,37,15.60
2018,04,24,09,38,15.70
2018,04,24,09,39,15.80
2018,04,24,09,40,15.80
2018,04,24,09,41,15.80
2018,04,24,09,42,15.80
2018,04,24,09,43,15.90
2018,04,24,09,44,15.90
2018,04,24,09,45,15.90
2018,04,24,09,46,15.90
2018,04,24,09,47,15.90
2018,04,24,09,48,16.00
2018,04,24,09,49,16.10
2018,04,24,09,50,16.10
2018,04,24,09,51,16.20
2018,04,24,09,52,16.20
2018,04,24,09,53,16.30
2018,04,24,09,54,16.30
2018,04,24,09,55,16.30
2018,04,24,09,56,16.30
2018,04,24,09,57,16.30
2018,04,24,09,58,16.30
2018,04,24,09,59,16.30
2018,04,24,10,00,16.30
2018,04,24,10,01,16.30
2018,04,24,10,02,16.40
2018,04,24,10,03,16.50
2018,04,24,10,04,16.50
2018,04,24,10,05,16.50
2018,04,24,10,06,16.50
2018,04,24,10,07,16.50
2018,04,24,10,08,16.50
2018,04,24,10,09,16.60
2018,04,24,10,10,16.70
2018,04,24,10,11,16.80
2018,04,24,10,12,16.80
2018,04,24,10,13,16.80
2018,04,24,10,14,16.80
2018,04,24,10,15,16.80
2018,04,24,10,16,16.80
2018,04,24,10,17,16.80
2018,04,24,10,18,16.70
2018,04,24,10,19,16.70
2018,04,24,10,20,16.70
2018,04,24,10,21,16.70
2018,04,24,10,22,16.70
2018,04,24,10,23,16.80
2018,04,24,10,24,16.80
2018,04,24,10,25,16.90
2018,04,24,10,26,17.00
2018,04,24,10,27,17.00
2018,04,24,10,28,17.10
2018,04,24,10,29,17.10
2018,04,24,10,30,17.20
2018,04,24,10,31,17.20
2018,04,24,10,32,17.20
2018,04,24,10,33,17.20
2018,04,24,10,34,17.20
2018,04,24,10,35,17.20
2018,04,24,10,36,17.20
2018,04,24,10,37,17.20
2018,04,24,10,38,17.20
2018,04,24,10,39,17.20
2018,04,24,10,40,17.30
2018,04,24,10,41,17.30
2018,04,24,10,42,17.40
2018,04,24,10,43,17.50
2018,04,24,10,44,17.50
2018,04,24,10,45,17.50
2018,04,24,10,46,17.60
2018,04,24,10,47,17.60
2018,04,24,10,48,17.70
2018,04,24,10,49,17.60
2018,04,24,10,50,17.60
2018,04,24,10,51,17.60
2018,04,24,10,52,17.50
2018,04,24,10,53,17.50
2018,04,24,10,54,17.40
2018,04,24,10,55,17.40
2018,04,24,10,56,17.30
2018,04,24,10,57,17.30
2018,04,24,10,58,17.30
2018,04,24,10,59,17.40
2018,04,24,11,00,17.50
2018,04,24,11,01,17.60
2018,04,24,11,02,17.70
2018,04,24,11,03,17.80
2018,04,24,11,04,17.90
2018,04,24,11,05,17.90
2018,04,24,11,06,17.90
2018,04,24,11,07,17.90
2018,04,24,11,08,17.90
2018,04,24,11,09,18.00
2018,04,24,11,10,18.00
2018,04,24,11,11,18.00
2018,04,24,11,12,18.10
2018,04,24,11,13,18.10
2018,04,24,11,14,18.20
2018,04,24,11,15,18.30
2018,04,24,11,16,18.40
2018,04,24,11,17,18.50
2018,04,24,11,18,18.50
2018,04,24,11,19,18.50
2018,04,24,11,20,18.60
2018,04,24,11,21,18.60
2018,04,24,11,22,18.60
2018,04,24,11,23,18.60
2018,04,24,11,24,18.60
2018,04,24,11,25,18.60
2018,04,24,11,26,18.60
2018,04,24,11,27,18.60
2018,04,24,11,28,18.50
2018,04,24,11,29,18.50
2018,04,24,11,30,18.60
2018,04,24,11,31,18.60
2018,04,24,11,32,18.70
2018,04,24,11,33,18.70
2018,04,24,11,34,18.70
2018,04,24,11,35,18.70
2018,04,24,11,36,18.80
2018,04,24,11,37,18.80
2018,04,24,11,38,18.80
2018,04,24,11,39,18.90
2018,04,24,11,40,19.00
2018,04,24,11,41,19.10
2018,04,24,11,42,19.20
2018,04,24,11,43,19.20
2018,04,24,11,44,19.20
2018,04,24,11,45,19.20
2018,04,24,11,46,19.20
2018,04,24,11,47,19.20
2018,04,24,11,48,19.20
2018,04,24,11,49,19.30
2018,04,24,11,50,19.40
2018,04,24,11,51,19.50
2018,04,24,11,52,19.60
2018,04,24,11,53,19.60
2018,04,24,11,54,19.60
2018,04,24,11,55,19.60
2018,04,24,11,56,19.60
2018,04,24,11,57,19.70
2018,04,24,11,58,19.70
2018,04,24,11,59,19.70
2018,04,24,12,00,19.70
2018,04,24,12,01,19.70
2018,04,24,12,02,19.70
2018,04,24,12,03,19.70
2018,04,24,12,04,19.60
2018,04,24,12,05,19.60
2018,04,24,12,06,19.60
2018,04,24,12,07,19.50
2018,04,24,12,08,19.40
2018,04,24,12,09,19.40
2018,04,24,12,10,19.30
2018,04,24,12,11,19.30
2018,04,24,12,12,19.30
2018,04,24,12,13,19.30
2018,04,24,12,14,19.30
2018,04,24,12,15,19.30
2018,04,24,12,16,19.20
2018,04,24,12,17,19.20
2018,04,24,12,18,19.30
2018,04,24,12,19,19.30
2018,04,24,12,20,19.30
2018,04,24,12,21,19.30
2018,04,24,12,22,19.30
2018,04,24,12,23,19.30
2018,04,24,12,24,19.30
2018,04,24,12,25,19.40
2018,04,24,12,26,19.40
2018,04,24,12,27,19.40
2018,04,24,12,28,19.40
2018,04,24,12,29,19.40
2018,04,24,12,30,19.40
2018,04,24,12,31,19.50
2018,04,24,12,32,19.40
2018,04,24,12,33,19.30
2018,04,24,12,34,19.30
2018,04,24,12,35,19.30
2018,04,24,12,36,19.20
2018,04,24,12,37,19.20
2018,04,24,12,38,19.20
2018,04,24,12,39,19.30
2018,04,24,12,40,19.30
2018,04,24,12,41,19.30
2018,04,24,12,42,19.40
2018,04,24,12,43,19.40
2018,04,24,12,44,19.30
2018,04,24,12,45,19.30
2018,04,24,12,46,19.20
2018,04,24,12,47,19.20
2018,04,24,12,48,19.30
2018,04,24,12,49,19.30
2018,04,24,12,50,19.40
2018,04,24,12,51,19.40
2018,04,24,12,52,19.50
2018,04,24,12,53,19.60
2018,04,24,12,54,19.60
2018,04,24,12,55,19.60
2018,04,24,12,56,19.50
2018,04,24,12,57,19.40
2018,04,24,12,58,19.30
2018,04,24,12,59,19.30
2018,04,24,13,00,19.40
2018,04,24,13,01,19.40
2018,04,24,13,02,19.40
2018,04,24,13,03,19.40
2018,04,24,13,04,19.50
2018,04,24,13,05,19.60
2018,04,24,13,06,19.70
2018,04,24,13,07,19.70
2018,04,24,13,08,19.80
2018,04,24,13,09,19.80
2018,04,24,13,10,19.80
2018,04,24,13,11,19.80
2018,04,24,13,12,19.80
2018,04,24,13,13,19.80
2018,04,24,13,14,19.90
2018,04,24,13,15,19.90
2018,04,24,13,16,19.80
2018,04,24,13,17,19.80
2018,04,24,13,18,19.80
2018,04,24,13,19,19.80
2018,04,24,13,20,19.80
2018,04,24,13,21,19.80
2018,04,24,13,22,19.80
2018,04,24,13,23,19.90
2018,04,24,13,24,19.90
2018,04,24,13,25,19.90
2018,04,24,13,26,20.00
2018,04,24,13,27,20.00
2018,04,24,13,28,20.20
2018,04,24,13,29,20.20
2018,04,24,13,30,20.30
2018,04,24,13,31,20.30
2018,04,24,13,32,20.30
2018,04,24,13,33,20.30
2018,04,24,13,34,20.40
2018,04,24,13,35,20.40
2018,04,24,13,36,20.40
2018,04,24,13,37,20.40
2018,04,24,13,38,20.30
2018,04,24,13,39,20.40
2018,04,24,13,40,20.40
2018,04,24,13,41,20.40
2018,04,24,13,42,20.30
2018,04,24,13,43,20.30
2018,04,24,13,44,20.30
2018,04,24,13,45,20.30
2018,04,24,13,46,20.40
2018,04,24,13,47,20.40
2018,04,24,13,48,20.40
2018,04,24,13,49,20.50
2018,04,24,13,50,20.50
2018,04,24,13,51,20.50
2018,04,24,13,52,20.60
2018,04,24,13,53,20.60
2018,04,24,13,54,20.60
2018,04,24,13,55,20.70
2018,04,24,13,56,20.70
2018,04,24,13,57,20.80
2018,04,24,13,58,20.90
2018,04,24,13,59,20.90
2018,04,24,14,00,21.00
2018,04,24,14,01,20.90
2018,04,24,14,02,20.90
2018,04,24,14,03,20.90
2018,04,24,14,04,20.80
2018,04,24,14,05,20.80
2018,04,24,14,06,20.70
2018,04,24,14,07,20.70
2018,04,24,14,08,20.70
2018,04,24,14,09,20.70
2018,04,24,14,10,20.80
2018,04,24,14,11,20.80
2018,04,24,14,12,20.80
2018,04,24,14,13,20.80
2018,04,24,14,14,20.80
2018,04,24,14,15,20.80
2018,04,24,14,16,20.90
2018,04,24,14,17,20.90
2018,04,24,14,18,21.00
2018,04,24,14,19,21.10
2018,04,24,14,20,21.20
2018,04,24,14,21,21.30
2018,04,24,14,22,21.40
2018,04,24,14,23,21.50
2018,04,24,14,24,21.40
2018,04,24,14,25,21.30
2018,04,24,14,26,21.20
2018,04,24,14,27,21.20
2018,04,24,14,28,21.30
2018,04,24,14,29,21.40
2018,04,24,14,30,21.30
2018,04,24,14,31,21.30
2018,04,24,14,32,21.20
2018,04,24,14,33,21.20
2018,04,24,14,34,21.20
2018,04,24,14,35,21.30
2018,04,24,14,36,21.30
2018,04,24,14,37,21.30
2018,04,24,14,38,21.20
2018,04,24,14,39,21.20
2018,04,24,14,40,21.20
2018,04,24,14,41,21.20
2018,04,24,14,42,21.20
2018,04,24,14,43,21.20
2018,04,24,14,44,21.20
2018,04,24,14,45,21.30
2018,04,24,14,46,21.30
2018,04,24,14,47,21.30
2018,04,24,14,48,21.20
2018,04,24,14,49,21.10
2018,04,24,14,50,21.00
2018,04,24,14,51,21.00
2018,04,24,14,52,21.00
2018,04,24,14,53,21.10
2018,04,24,14,54,21.10
2018,04,24,14,55,21.10
2018,04,24,14,56,21.10
2018,04,24,14,57,21.20
2018,04,24,14,58,21.20
2018,04,24,14,59,21.20
2018,04,24,15,00,21.20
2018,04,24,15,01,21.20
2018,04,24,15,02,21.20
2018,04,24,15,03,21.20
2018,04,24,15,04,21.10
2018,04,24,15,05,21.10
2018,04,24,15,06,21.00
2018,04,24,15,07,21.00
2018,04,24,15,08,20.90
2018,04,24,15,09,20.90
2018,04,24,15,10,21.00
2018,04,24,15,11,21.10
2018,04,24,15,12,21.10
2018,04,24,15,13,21.10
2018,04,24,15,14,21.20
2018,04,24,15,15,21.20
2018,04,24,15,16,21.20
2018,04,24,15,17,21.30
2018,04,24,15,18,21.30
2018,04,24,15,19,21.30
2018,04,24,15,20,21.30
2018,04,24,15,21,21.20
2018,04,24,15,22,21.20
2018,04,24,15,23,21.20
2018,04,24,15,24,21.20
2018,04,24,15,25,21.20
2018,04,24,15,26,21.20
2018,04,24,15,27,21.20
2018,04,24,15,28,21.20
2018,04,24,15,29,21.30
2018,04,24,15,30,21.30
2018,04,24,15,31,21.30
2018,04,24,15,32,21.30
2018,04,24,15,33,21.30
2018,04,24,15,34,21.30
2018,04,24,15,35,21.40
2018,04,24,15,36,21.40
2018,04,24,15,37,21.40
2018,04,24,15,38,21.40
2018,04,24,15,39,21.40
2018,04,24,15,40,21.50
2018,04,24,15,41,21.50
2018,04,24,15,42,21.60
2018,04,24,15,43,21.60
2018,04,24,15,44,21.70
2018,04,24,15,45,21.70
2018,04,24,15,46,21.70
2018,04,24,15,47,21.60
2018,04,24,15,48,21.50
2018,04,24,15,49,21.50
2018,04,24,15,50,21.40
2018,04,24,15,51,21.40
2018,04,24,15,52,21.40
2018,04,24,15,53,21.40
2018,04,24,15,54,21.40
2018,04,24,15,55,21.50
2018,04,24,15,56,21.40
2018,04,24,15,57,21.50
2018,04,24,15,58,21.50
2018,04,24,15,59,21.40
2018,04,24,16,00,21.40
2018,04,24,16,01,21.50
2018,04,24,16,02,21.60
2018,04,24,16,03,21.60
2018,04,24,16,04,21.50
2018,04,24,16,05,21.40
2018,04,24,16,06,21.30
2018,04,24,16,07,21.40
2018,04,24,16,08,21.40
2018,04,24,16,09,21.50
2018,04,24,16,10,21.50
2018,04,24,16,11,21.50
2018,04,24,16,12,21.50
2018,04,24,16,13,21.50
2018,04,24,16,14,21.50
2018,04,24,16,15,21.50
2018,04,24,16,16,21.50
2018,04,24,16,17,21.50
2018,04,24,16,18,21.50
2018,04,24,16,19,21.50
2018,04,24,16,20,21.50
2018,04,24,16,21,21.60
2018,04,24,16,22,21.60
2018,04,24,16,23,21.60
2018,04,24,16,24,21.60
2018,04,24,16,25,21.60
2018,04,24,16,26,21.60
2018,04,24,16,27,21.50
2018,04,24,16,28,21.50
2018,04,24,16,29,21.50
2018,04,24,16,30,21.50
2018,04,24,16,31,21.50
2018,04,24,16,32,21.40
2018,04,24,16,33,21.40
2018,04,24,16,34,21.40
2018,04,24,16,35,21.40
2018,04,24,16,36,21.30
2018,04,24,16,37,21.30
2018,04,24,16,38,21.30
2018,04,24,16,39,21.30
2018,04,24,16,40,21.30
2018,04,24,16,41,21.30
2018,04,24,16,42,21.20
2018,04,24,16,43,21.20
2018,04,24,16,44,21.20
2018,04,24,16,45,21.20
2018,04,24,16,46,21.10
2018,04,24,16,47,21.00
2018,04,24,16,48,21.00
2018,04,24,16,49,20.90
2018,04,24,16,50,20.70
2018,04,24,16,51,20.60
2018,04,24,16,52,20.60
2018,04,24,16,53,20.60
2018,04,24,16,54,20.60
2018,04,24,16,55,20.60
2018,04,24,16,56,20.60
2018,04,24,16,57,20.60
2018,04,24,16,58,20.60
2018,04,24,16,59,20.60
2018,04,24,17,00,20.60
2018,04,24,17,01,20.60
2018,04,24,17,02,20.60
2018,04,24,17,03,20.60
2018,04,24,17,04,20.60
2018,04,24,17,05,20.70
2018,04,24,17,06,20.70
2018,04,24,17,07,20.70
2018,04,24,17,08,20.80
2018,04,24,17,09,20.80
2018,04,24,17,10,20.70
2018,04,24,17,11,20.70
2018,04,24,17,12,20.70
2018,04,24,17,13,20.70
2018,04,24,17,14,20.60
2018,04,24,17,15,20.60
2018,04,24,17,16,20.50
2018,04,24,17,17,20.50
2018,04,24,17,18,20.50
2018,04,24,17,19,20.50
2018,04,24,17,20,20.40
2018,04,24,17,21,20.40
2018,04,24,17,22,20.30
2018,04,24,17,23,20.30
2018,04,24,17,24,20.20
2018,04,24,17,25,20.10
2018,04,24,17,26,20.10
2018,04,24,17,27,20.10
2018,04,24,17,28,20.00
2018,04,24,17,29,20.00
2018,04,24,17,30,19.90
2018,04,24,17,31,20.00
2018,04,24,17,32,20.00
2018,04,24,17,33,20.00